Dewpoint
4 7 8 9 9 9 9 9 6 6 3 5 4 7 8 10 12 12 14 14 14 15 14 11 6 3 6 8 9 10 10 11 12 13 11 12 13 12 5 9 12 13 13 13 13 12 2 2 2
5 6 8 8 8 9 8 8 8 6 3 2 8 10 11 12 14 14 14 13 14 15 15 14 12 4 4 4 6 10 11 11 11 13 11 13 13 12 3 11 13 11 12 12 12 9 2 4 8
6 7 8 7 8 8 8 5 5 3 1 1 9 9 9 12 14 14 12 11 12 15 15 14 13 8 6 5 4 6 8 11 11 13 12 12 14 11 6 10 8 6 8 8 -0 -0 3 9 10
8 8 8 8 8 6 6 5 3 3 2 6 9 9 10 11 12 13 12 13 13 14 15 14 14 11 7 6 5 10 8 9 11 11 12 12 14 9 13 11 12 1 -1 -1 -1 0 5 8 9
6 5 7 8 7 6 4 3 3 2 1 0 2 9 10 11 12 13 12 12 12 12 13 15 15 13 10 9 6 7 10 7 11 11 11 12 13 8 11 10 8 1 -2 -1 -2 -2 -1 2 5
4 4 7 8 7 3 2 1 0 -0 -1 -1 1 9 9 10 11 13 11 11 11 11 12 14 14 13 11 12 10 7 9 10 9 11 12 13 14 9 11 8 8 -2 -3 -2 -2 -1 -0 0 3
4 5 6 5 5 3 2 -1 -3 -3 -4 -4 -4 8 10 11 11 11 12 13 12 12 11 13 14 13 11 10 12 13 10 10 9 11 12 14 14 9 11 8 10 -0 -1 -1 -1 0 1 2 3
4 4 6 5 5 4 -1 -2 -2 -3 -3 -3 -4 5 9 8 10 9 10 11 11 11 12 11 13 13 11 11 14 14 13 11 10 11 13 14 14 8 12 11 9 4 4 0 1 2 2 3 3
2 5 5 4 4 3 -0 -1 -2 -2 -2 -2 2 8 7 7 9 7 8 7 6 7 7 10 12 13 10 11 11 12 13 12 10 12 13 14 14 8 12 12 10 11 9 3 2 3 2 3 4
1 4 4 1 1 1 -0 -1 -1 -2 -2 -1 0 4 8 8 9 8 6 6 6 6 6 5 11 13 12 12 9 10 12 13 12 12 13 13 13 10 11 11 11 12 10 5 4 4 3 3 2
-1 2 0 -0 -1 -1 -0 -1 -3 -2 -1 -3 -1 -2 6 7 8 7 6 6 6 6 6 6 6 5 5 10 10 9 10 13 13 13 13 13 13 11 12 11 12 12 11 7 5 4 3 3 2
-5 -6 -5 -4 -5 -5 -4 -6 -6 -6 -4 -4 -4 -3 -2 7 5 6 5 4 6 7 6 6 6 5 5 7 10 10 9 10 14 13 13 13 13 8 12 12 12 12 10 7 5 4 4 3 3
-6 -5 -3 -4 -4 -5 -6 -6 -6 -6 -7 -6 -4 -4 -3 -3 4 4 5 5 6 6 5 6 6 6 6 6 7 10 8 8 10 14 13 13 13 7 12 12 12 11 9 6 4 4 4 4 3
-3 -3 -3 -4 -3 -3 -3 -4 -6 -7 -7 -7 -7 -5 -4 -3 5 5 3 3 3 3 4 6 7 7 7 7 7 9 8 8 8 13 14 14 13 6 8 9 9 7 5 5 4 4 3 3 4
-2 -2 -3 -4 -4 -3 -5 -3 -3 -6 -8 -8 -7 -6 -5 -4 -3 5 5 5 4 4 3 4 7 8 8 8 8 8 9 9 9 12 13 13 9 2 4 4 4 2 3 5 4 4 5 6 6
-1 -2 -0 -4 -4 -3 -3 -2 -5 -8 -7 -8 -6 -6 -6 -6 -5 -2 4 4 4 3 3 3 6 8 9 9 9 9 10 10 8 12 13 13 8 4 7 6 5 3 5 4 5 5 6 7 9
-2 -1 -0 -1 -2 -2 -1 0 -3 -4 -5 -6 -7 -7 -4 -4 -6 -5 2 3 4 4 3 2 4 9 9 10 9 9 10 11 9 10 12 13 8 6 8 7 7 5 5 5 6 6 8 8 9
-2 -1 -0 -0 -2 -3 -1 0 -1 -3 -4 -6 -7 -7 -6 -7 -5 -4 2 2 3 4 3 2 8 9 9 10 10 10 9 11 11 10 12 12 10 10 10 10 7 6 7 7 7 8 7 7 9
-1 0 1 -1 -2 -1 0 0 -1 -2 -3 -6 -6 -6 -4 -4 -5 -4 3 3 4 3 3 6 10 9 10 10 11 11 9 12 12 10 11 11 11 11 12 10 9 8 5 6 8 7 7 8 10
1 2 1 -0 -1 -1 0 1 -1 -2 -3 -4 -3 -4 -4 -4 -3 4 3 3 2 2 4 8 10 9 10 9 11 11 12 11 10 11 11 11 10 11 11 10 9 7 7 8 7 7 8 9 10
1 1 1 2 0 1 1 1 0 -3 -3 -3 -4 -1 1 2 2 3 2 3 3 7 8 8 10 9 9 9 12 12 12 11 10 9 10 11 11 11 10 8 7 6 9 9 9 9 9 10 10
2 -0 1 2 4 2 -2 2 1 4 3 -2 -3 -6 -3 -0 3 3 3 6 8 10 10 9 9 8 6 9 11 12 11 11 10 10 10 10 10 10 7 7 9 9 10 10 9 11 10 10 10
1 -0 1 3 6 5 2 1 4 5 5 4 3 4 2 -0 3 3 4 7 8 8 8 9 10 9 6 8 11 11 11 11 11 11 10 9 10 9 11 11 11 11 13 12 11 10 9 10 10
1 5 4 5 5 5 4 3 7 6 5 4 3 5 6 3 4 5 7 8 8 8 9 9 10 9 7 10 10 10 10 8 9 9 9 10 10 10 10 9 9 9 10 10 9 11 10 9 9
5 5 6 5 5 5 7 6 6 4 4 5 5 5 7 7 6 8 9 9 8 7 9 9 10 9 9 9 10 9 9 8 9 8 8 9 8 8 9 8 9 9 8 10 10 9 8 8 9
5 5 7 8 7 7 7 6 5 4 6 6 6 6 6 6 8 8 8 8 7 8 9 9 10 10 10 10 9 10 10 10 9 10 9 9 9 9 9 9 9 9 10 10 10 10 9 10 9
6 7 5 7 7 5 7 6 4 4 4 5 5 4 5 6 6 6 6 6 5 5 5 8 9 9 9 9 9 9 10 9 8 8 9 9 8 8 7 7 9 9 10 9 10 9 8 8 9
5 4 6 6 8 6 5 6 5 4 3 4 4 5 5 4 3 4 4 5 5 5 5 4 4 8 9 9 9 10 9 9 8 8 8 8 8 8 8 7 8 9 9 9 8 9 9 9 9
3 4 2 2 6 7 7 7 4 3 3 4 4 3 3 2 2 1 0 0 0 0 1 3 4 5 5 5 4 8 9 9 9 9 9 10 9 9 9 9 8 9 10 9 8 10 10 9 9
1 2 1 3 3 4 5 6 3 4 3 3 0 -0 -0 -0 -0 -0 -0 -0 -0 -0 -1 -1 -1 -1 -0 2 4 5 6 6 7 7 8 8 7 7 7 8 9 8 8 9 8 9 10 10 10
Wind_Speed
12 8 6 4 3 2 3 6 4 6 3 2 9 6 5 3 2 3 11 8 11 15 15 16 15 15 16 16 16 16 15 15 14 14 13 14 13 10 9 14 18 18 18 17 16 15 20 21 21
13 8 5 3 3 3 4 5 7 8 5 17 7 5 2 2 6 12 12 11 9 14 15 11 15 16 15 15 15 16 15 14 15 15 13 14 14 12 10 15 19 19 19 18 17 17 24 23 22
11 10 6 4 4 6 4 4 11 4 9 16 5 3 5 5 11 20 14 10 13 16 14 12 14 16 15 14 14 15 16 16 15 16 15 15 14 13 13 15 17 17 19 18 19 22 23 22 20
8 4 2 2 7 5 5 7 8 13 17 8 6 5 3 8 14 15 16 14 15 14 15 13 13 15 14 13 13 13 16 17 17 16 16 16 16 15 17 16 18 17 18 19 21 21 22 21 17
7 3 1 4 7 4 5 11 12 9 7 13 15 5 3 8 12 15 14 14 13 13 14 18 17 14 13 12 12 14 15 17 18 17 17 17 18 17 19 18 17 17 19 19 19 19 20 19 16
4 3 1 8 6 1 5 16 6 8 14 18 10 6 4 9 14 16 12 14 13 13 15 17 17 21 17 12 11 13 17 18 19 18 18 19 20 19 18 18 18 19 19 19 18 18 18 18 15
5 3 4 2 3 4 5 5 3 7 8 11 19 4 3 14 17 16 14 12 12 13 16 18 19 20 19 14 12 13 16 19 20 19 20 21 20 21 20 20 18 19 20 19 18 17 16 15 13
2 3 3 5 6 6 5 9 8 13 9 20 16 5 6 16 16 13 12 10 7 8 10 19 17 19 19 14 11 13 16 19 20 21 22 22 21 25 24 20 19 20 20 20 18 16 15 13 12
1 1 4 4 4 4 12 8 5 13 15 19 20 11 12 17 19 15 14 13 12 12 13 13 16 20 27 25 15 11 16 18 21 23 24 25 20 27 24 23 22 21 20 18 16 15 14 13 12
3 2 4 3 3 4 12 10 20 10 15 4 17 15 6 13 16 14 13 14 13 11 8 8 14 11 22 31 28 8 12 18 23 25 26 28 21 29 26 25 26 22 20 19 16 14 14 13 12
2 4 3 9 16 18 13 14 18 7 2 13 15 16 10 9 8 11 11 11 12 13 13 12 11 12 18 20 22 12 15 15 24 28 29 30 26 32 31 27 26 24 23 21 19 17 14 12 11
3 6 6 7 9 9 6 10 13 15 18 18 21 20 15 11 15 14 12 13 11 10 13 14 14 16 17 28 32 17 17 21 28 31 32 32 31 35 34 30 28 26 26 24 21 17 14 13 12
2 4 13 13 15 15 16 7 11 27 24 21 20 22 20 17 19 16 14 13 14 14 14 15 15 17 19 19 34 44 30 24 27 37 36 35 32 36 37 33 30 29 29 24 21 18 16 14 12
6 10 13 13 18 15 10 15 12 20 21 26 24 29 25 22 16 18 19 20 19 16 18 19 18 18 17 24 24 35 30 32 31 37 39 37 32 37 39 37 35 32 27 23 20 18 16 14 12
8 6 9 10 11 6 11 15 16 26 34 35 26 29 32 27 24 18 17 17 16 17 16 18 24 19 20 20 23 33 28 25 29 36 41 30 31 37 39 37 34 27 25 23 20 19 16 15 14
5 2 4 4 3 6 7 12 11 27 19 31 27 28 31 35 30 22 19 21 21 23 26 22 23 24 22 23 19 30 35 27 34 39 42 34 31 33 33 32 30 28 26 25 23 20 18 16 15
2 4 5 7 1 4 6 9 10 25 23 29 32 29 23 28 35 28 24 22 21 25 25 26 25 26 23 24 28 27 36 30 37 46 46 40 37 33 31 31 29 29 27 26 23 20 17 17 18
4 4 6 8 3 13 17 23 17 26 23 26 31 31 27 29 33 27 25 25 26 26 26 26 25 26 26 27 38 42 42 38 37 45 44 37 37 34 30 29 28 30 28 25 23 21 20 21 18
2 7 14 17 18 15 18 23 20 25 18 20 29 32 30 28 30 26 23 24 23 29 28 26 26 24 25 29 31 37 43 43 46 43 42 39 34 35 32 30 30 30 28 27 24 23 22 22 18
8 15 19 15 13 7 13 20 22 19 13 23 26 29 29 29 25 20 20 24 28 27 26 26 24 20 20 24 30 36 41 48 36 34 39 39 38 36 34 32 33 31 30 27 25 25 26 22 20
14 14 15 14 13 13 13 11 7 3 9 16 21 20 17 18 21 17 20 23 25 22 20 23 22 17 17 20 25 40 46 42 35 32 36 40 39 37 34 35 35 32 30 29 28 26 25 25 24
13 8 14 14 7 3 3 5 5 6 6 6 15 21 24 18 23 17 17 15 15 15 19 17 16 14 14 18 9 42 43 40 38 38 41 42 40 37 34 32 31 32 32 31 29 28 28 25 23
10 4 9 7 10 4 2 2 5 8 8 8 7 11 18 22 18 18 15 12 7 8 13 16 20 21 17 23 11 25 26 24 32 34 36 35 35 36 33 30 32 33 34 31 32 29 22 22 23
11 7 9 2 2 2 5 4 1 5 9 13 8 18 10 19 17 12 13 7 2 6 7 16 18 13 6 19 18 18 17 14 13 17 23 24 23 25 29 28 29 32 32 30 33 23 18 15 17
4 2 3 2 1 3 3 3 3 12 17 7 7 16 15 9 14 14 9 8 6 17 19 10 16 15 16 25 17 18 17 16 16 19 17 19 21 23 22 25 25 31 29 32 23 22 21 25 25
4 2 2 4 3 3 2 3 3 10 9 8 12 19 18 16 19 18 14 7 11 7 13 21 15 20 30 21 22 19 22 19 11 15 23 24 25 23 17 22 28 34 29 26 27 27 29 33 32
2 2 2 3 2 3 3 3 4 14 16 18 23 20 11 26 28 22 17 13 12 13 14 10 16 21 15 12 9 14 20 8 14 13 21 24 20 24 26 29 32 30 30 32 37 30 33 39 39
6 3 1 2 4 3 4 3 5 12 10 10 10 8 19 31 30 25 21 20 17 16 15 12 12 6 2 4 5 1 19 17 14 21 21 28 39 35 33 44 36 33 35 38 42 43 43 41 41
3 4 2 3 2 3 3 3 5 6 5 5 8 16 21 23 24 24 24 22 22 22 22 20 16 11 7 2 3 6 10 13 18 22 23 23 27 36 37 37 39 40 34 32 44 44 46 46 47
3 4 2 3 1 2 3 1 8 9 4 3 11 21 28 28 26 23 20 19 21 21 19 18 16 15 13 11 6 1 6 10 14 16 18 21 22 22 26 30 32 35 36 34 33 37 39 41 40
Wind_Direction
183 182 174 140 90 81 245 247 262 306 266 175 273 247 217 141 155 206 150 155 169 179 175 184 193 189 187 183 179 182 181 178 176 175 176 174 175 168 153 143 145 137 137 142 133 129 133 129 125
178 177 164 118 115 176 242 224 247 247 342 328 266 152 166 177 146 154 150 157 166 175 184 181 198 193 188 187 187 187 189 186 182 183 180 179 177 171 160 151 145 145 142 136 137 134 131 130 128
176 173 143 142 174 195 227 210 225 311 314 317 275 245 178 181 155 158 157 161 162 172 181 185 201 196 189 191 194 193 195 194 190 185 181 181 181 171 158 153 150 150 144 142 133 132 135 135 130
170 152 154 168 231 256 233 293 290 322 327 329 301 270 192 176 171 168 158 151 156 175 176 183 190 196 198 198 199 198 198 197 197 196 192 189 183 169 166 166 158 153 145 140 138 136 139 141 138
143 107 241 216 238 243 285 270 298 300 299 292 314 253 231 183 177 170 170 159 179 191 186 182 183 183 197 202 203 201 203 201 201 203 197 192 187 171 179 175 167 161 154 152 147 145 147 152 149
125 124 141 238 240 207 280 281 322 293 295 295 291 232 220 193 181 173 191 189 201 209 203 196 189 186 182 187 203 204 205 205 206 204 200 193 188 180 185 180 174 166 161 158 153 150 150 152 152
121 99 213 231 266 277 232 305 283 317 324 317 314 247 213 189 181 182 187 193 197 204 223 210 195 191 180 194 196 207 216 209 208 206 200 196 195 186 188 181 179 173 168 163 158 155 153 154 154
160 111 221 213 227 267 274 333 300 18 324 342 332 247 197 210 191 189 187 190 212 229 235 232 208 194 197 184 197 215 213 217 208 204 201 198 200 188 189 185 180 177 177 169 165 161 160 159 159
73 252 237 222 180 269 317 348 323 340 330 338 360 329 292 204 190 196 206 217 223 232 240 253 245 207 227 220 209 221 226 213 214 207 201 203 207 187 183 191 186 183 180 176 175 171 165 162 161
160 193 235 226 328 301 306 311 311 331 335 342 355 5 341 185 191 204 212 219 229 232 217 215 224 204 206 214 210 232 251 224 217 208 201 204 202 185 188 191 188 184 185 184 182 179 175 173 170
213 211 248 281 290 290 284 298 303 310 257 310 308 328 326 281 239 223 225 228 230 238 253 256 246 231 234 224 199 216 256 250 220 212 206 205 202 187 192 194 184 185 188 189 187 186 183 181 180
303 282 283 304 313 320 300 303 294 279 273 292 293 294 299 275 259 257 246 249 247 243 256 259 267 257 252 221 215 232 259 250 209 212 212 210 207 199 195 199 188 193 189 194 194 192 193 195 193
227 320 315 307 305 297 294 274 275 280 280 285 285 289 294 290 259 256 258 245 245 254 264 264 272 275 271 268 232 232 244 250 263 203 212 216 212 206 197 198 192 196 195 193 192 196 201 205 203
316 299 304 310 298 289 280 281 282 269 279 283 278 277 279 282 265 251 250 254 257 263 270 264 263 279 274 281 263 226 230 244 257 214 207 213 216 211 200 201 197 198 196 195 196 202 204 206 211
308 318 319 282 273 262 269 268 252 267 271 273 271 266 269 272 275 264 264 256 257 259 269 268 257 266 267 276 268 240 215 227 239 222 214 213 215 212 204 202 201 200 197 196 195 199 203 204 206
324 345 308 272 294 259 183 255 271 269 260 267 272 266 265 266 269 273 267 270 272 270 268 274 265 259 265 252 265 237 213 230 247 224 224 211 213 207 204 203 203 200 198 197 199 202 207 209 209
302 269 268 306 332 276 190 288 287 293 253 253 264 266 265 270 265 263 255 266 264 264 269 268 268 259 257 262 257 248 229 238 237 224 220 211 207 202 204 206 209 201 198 200 203 207 212 213 215
263 323 281 276 258 312 292 282 279 283 254 242 254 258 262 266 265 258 256 257 263 265 270 266 259 258 265 258 276 258 238 239 216 211 216 214 207 204 204 209 205 200 202 206 208 214 219 219 220
306 272 276 281 286 285 277 277 278 277 244 238 246 252 256 265 263 263 245 254 257 266 276 260 256 262 272 287 262 226 215 211 204 203 215 204 209 207 207 210 206 205 207 210 212 216 216 216 213
246 272 279 284 273 262 268 270 265 264 236 226 235 249 262 266 256 231 246 263 268 269 265 250 252 254 273 284 246 221 217 201 197 200 205 202 208 209 213 216 211 211 212 214 212 210 212 212 209
258 262 270 258 297 269 272 280 303 280 210 232 249 265 266 264 223 235 256 272 277 266 252 244 244 252 278 279 204 200 199 194 186 190 205 204 207 211 218 216 214 212 214 211 207 210 211 209 211
282 240 250 265 283 268 68 295 325 344 285 226 271 287 282 276 241 247 259 270 257 250 244 240 235 252 282 235 192 181 180 183 181 195 203 211 215 219 218 214 214 216 215 216 216 213 213 211 217
242 298 279 269 285 290 212 105 286 348 356 358 338 338 277 254 232 235 243 220 240 266 266 250 245 247 277 236 203 160 164 181 190 197 200 203 207 206 211 213 216 213 218 221 227 225 232 235 233
261 307 283 210 281 289 184 153 346 5 319 304 321 331 314 233 218 214 197 180 115 3 298 246 214 228 263 196 207 190 181 168 174 187 195 202 206 212 217 219 224 226 228 232 233 221 215 231 241
239 263 297 279 323 259 10 178 20 320 300 255 315 328 333 252 215 180 175 134 38 34 24 107 204 217 201 191 170 175 169 181 192 208 206 201 206 211 215 224 227 228 230 233 232 237 247 243 247
260 220 274 353 353 353 10 3 346 331 13 74 60 60 62 67 101 77 51 32 17 14 24 53 75 179 158 186 193 182 171 170 183 189 203 212 219 226 225 231 238 238 227 231 239 242 246 247 248
1 263 265 297 290 62 340 358 229 2 32 47 61 67 44 76 77 65 58 43 26 23 35 61 68 140 172 180 203 239 212 226 234 237 235 229 227 246 252 259 255 262 248 249 246 253 265 260 253
207 208 251 309 358 36 341 23 12 354 19 57 86 114 86 80 79 77 71 63 59 56 59 63 69 98 200 242 292 284 219 237 229 254 262 243 241 260 242 256 256 264 261 256 259 263 266 257 254
318 307 251 114 162 57 351 22 317 336 17 87 109 77 85 84 81 77 76 71 67 66 65 66 68 74 80 101 146 181 219 250 254 259 264 268 260 259 258 244 249 266 265 255 260 265 259 253 262
224 291 276 118 337 39 104 1 285 267 267 10 75 72 77 81 81 78 75 66 59 58 59 59 60 64 63 61 57 349 260 255 258 263 266 266 266 260 254 254 255 259 262 255 254 261 262 258 259
Height
1512 1513 1515 1518 1528 1528 1531 1522 1509 1510 1507 1505 1505 1504 1500 1500 1501 1513 1505 1506 1508 1511 1512 1514 1518 1520 1522 1524 1526 1528 1529 1531 1532 1534 1535 1537 1538 1540 1540 1540 1541 1542 1543 1545 1546 1547 1547 1548 1549
1511 1513 1516 1517 1531 1532 1527 1514 1511 1506 1506 1505 1503 1501 1501 1501 1500 1502 1504 1506 1508 1510 1512 1514 1516 1519 1522 1524 1526 1527 1529 1531 1532 1534 1535 1537 1538 1539 1540 1541 1542 1542 1544 1545 1547 1548 1549 1550 1551
1511 1513 1515 1519 1527 1530 1524 1508 1507 1507 1507 1506 1504 1500 1499 1498 1499 1500 1502 1504 1506 1509 1512 1514 1515 1518 1521 1524 1525 1527 1528 1531 1533 1534 1535 1537 1538 1539 1540 1542 1543 1543 1545 1546 1548 1549 1551 1552 1553
1511 1514 1515 1519 1521 1517 1512 1506 1506 1508 1507 1504 1503 1502 1499 1498 1499 1500 1501 1503 1506 1509 1512 1513 1515 1517 1519 1522 1525 1527 1527 1530 1532 1534 1536 1537 1539 1539 1541 1542 1544 1545 1546 1548 1550 1551 1553 1554 1554
1510 1512 1519 1518 1514 1511 1509 1508 1510 1509 1510 1504 1504 1501 1499 1497 1498 1499 1500 1502 1505 1507 1510 1511 1513 1515 1518 1521 1523 1525 1528 1529 1531 1534 1535 1537 1539 1540 1541 1543 1545 1546 1547 1549 1551 1552 1554 1555 1556
1510 1512 1522 1519 1514 1507 1507 1506 1509 1507 1506 1503 1502 1499 1498 1497 1499 1499 1501 1501 1503 1506 1508 1509 1511 1512 1515 1520 1523 1524 1526 1527 1530 1532 1535 1537 1539 1540 1541 1543 1545 1547 1548 1550 1552 1553 1555 1556 1557
1510 1515 1517 1514 1515 1511 1507 1506 1508 1507 1506 1503 1502 1498 1497 1497 1498 1498 1500 1501 1502 1504 1507 1507 1508 1511 1512 1519 1521 1523 1526 1526 1528 1531 1533 1536 1538 1540 1542 1543 1546 1548 1549 1551 1553 1554 1556 1557 1558
1510 1512 1513 1512 1511 1511 1506 1506 1505 1507 1504 1504 1501 1496 1495 1494 1496 1498 1500 1502 1504 1504 1506 1508 1507 1509 1513 1516 1521 1522 1523 1524 1526 1529 1532 1534 1537 1539 1541 1543 1545 1548 1550 1551 1553 1555 1556 1558 1558
1511 1515 1513 1509 1508 1506 1503 1505 1504 1505 1505 1504 1501 1497 1494 1491 1493 1495 1497 1499 1501 1503 1504 1507 1507 1509 1510 1511 1519 1521 1523 1522 1525 1526 1529 1533 1536 1538 1540 1542 1544 1547 1550 1551 1553 1555 1556 1558 1559
1510 1514 1510 1506 1506 1505 1504 1504 1502 1502 1501 1501 1500 1497 1495 1494 1493 1494 1494 1496 1497 1500 1503 1505 1507 1508 1510 1514 1513 1522 1522 1522 1523 1524 1526 1529 1533 1536 1539 1539 1543 1545 1548 1551 1553 1555 1556 1557 1558
1508 1510 1506 1505 1505 1505 1503 1501 1501 1499 1497 1500 1501 1501 1499 1498 1496 1495 1494 1495 1496 1498 1499 1501 1503 1506 1508 1509 1511 1514 1520 1519 1520 1522 1524 1527 1530 1534 1537 1538 1541 1543 1546 1549 1551 1553 1555 1556 1557
1509 1505 1504 1503 1503 1502 1501 1500 1496 1496 1493 1496 1497 1498 1499 1498 1496 1495 1494 1494 1493 1494 1495 1496 1497 1499 1501 1505 1508 1512 1517 1517 1515 1519 1522 1524 1527 1531 1534 1536 1539 1541 1543 1546 1549 1552 1554 1555 1556
1507 1505 1502 1502 1501 1499 1499 1497 1495 1487 1490 1491 1492 1492 1493 1494 1494 1492 1492 1492 1491 1490 1491 1492 1492 1493 1494 1496 1499 1503 1508 1510 1512 1513 1518 1521 1523 1526 1530 1533 1536 1538 1541 1544 1547 1550 1551 1553 1555
1507 1506 1502 1499 1497 1497 1497 1493 1492 1483 1486 1486 1487 1484 1486 1488 1489 1489 1487 1487 1487 1487 1487 1488 1489 1490 1491 1491 1490 1492 1497 1505 1506 1511 1511 1516 1519 1522 1524 1528 1532 1535 1539 1542 1545 1547 1549 1551 1553
1508 1507 1500 1494 1493 1493 1493 1486 1482 1483 1483 1479 1479 1481 1478 1480 1483 1482 1481 1482 1482 1483 1484 1484 1485 1485 1487 1486 1485 1487 1490 1495 1499 1506 1509 1511 1515 1518 1520 1524 1529 1533 1536 1540 1542 1545 1547 1548 1550
1510 1509 1509 1493 1491 1489 1491 1479 1477 1477 1479 1472 1473 1474 1475 1472 1475 1477 1476 1476 1477 1478 1478 1479 1480 1480 1481 1483 1482 1485 1486 1489 1493 1499 1506 1506 1512 1515 1518 1522 1526 1531 1533 1536 1539 1541 1543 1546 1547
1513 1514 1509 1495 1489 1490 1489 1481 1474 1473 1473 1469 1467 1467 1469 1469 1468 1471 1472 1472 1472 1473 1473 1473 1474 1474 1475 1476 1477 1480 1483 1482 1484 1491 1495 1502 1507 1510 1514 1519 1524 1528 1531 1532 1536 1538 1540 1542 1545
1519 1517 1503 1500 1487 1488 1486 1472 1470 1465 1466 1463 1460 1460 1462 1463 1463 1465 1467 1466 1466 1467 1468 1468 1467 1468 1468 1470 1468 1469 1474 1477 1474 1482 1492 1496 1502 1507 1512 1516 1521 1524 1527 1530 1532 1534 1537 1539 1541
1508 1508 1504 1494 1486 1487 1478 1468 1460 1454 1454 1455 1454 1454 1455 1456 1458 1460 1461 1462 1462 1462 1461 1461 1461 1463 1463 1461 1455 1457 1464 1470 1471 1475 1487 1494 1499 1506 1509 1512 1518 1520 1522 1526 1529 1531 1533 1535 1537
1506 1502 1495 1487 1481 1481 1473 1462 1450 1446 1444 1444 1446 1447 1448 1449 1451 1455 1455 1457 1457 1457 1456 1455 1456 1457 1456 1453 1449 1453 1458 1464 1467 1473 1482 1489 1494 1499 1506 1508 1513 1515 1519 1522 1524 1526 1528 1531 1533
1499 1498 1493 1492 1480 1473 1469 1460 1446 1440 1439 1440 1442 1442 1443 1444 1447 1449 1452 1452 1452 1451 1450 1450 1450 1452 1449 1446 1439 1446 1453 1461 1465 1469 1477 1487 1494 1499 1502 1505 1509 1511 1515 1518 1519 1521 1524 1526 1528
1493 1483 1484 1484 1482 1486 1468 1481 1450 1444 1441 1439 1437 1437 1438 1441 1445 1446 1449 1450 1449 1448 1448 1447 1446 1446 1444 1444 1440 1441 1449 1457 1458 1469 1478 1483 1488 1493 1497 1501 1506 1509 1511 1513 1515 1517 1519 1521 1523
1483 1479 1478 1476 1473 1472 1469 1486 1451 1444 1444 1445 1441 1439 1437 1440 1441 1444 1447 1448 1447 1445 1443 1442 1442 1443 1440 1443 1441 1438 1446 1454 1459 1468 1475 1481 1484 1489 1494 1498 1501 1504 1507 1509 1510 1514 1515 1517 1519
1479 1479 1473 1472 1474 1475 1460 1467 1451 1456 1455 1448 1442 1439 1437 1438 1440 1443 1445 1446 1446 1444 1439 1434 1437 1439 1438 1444 1445 1447 1449 1453 1461 1466 1473 1478 1482 1487 1491 1495 1498 1501 1503 1506 1505 1505 1509 1511 1513
1479 1480 1473 1472 1474 1469 1458 1460 1460 1461 1451 1444 1444 1440 1438 1439 1440 1443 1443 1445 1442 1437 1434 1431 1435 1437 1440 1446 1448 1450 1452 1457 1462 1468 1474 1477 1480 1485 1487 1492 1494 1498 1497 1501 1500 1501 1502 1505 1507
1479 1476 1466 1459 1461 1456 1457 1460 1462 1460 1447 1445 1444 1443 1441 1437 1437 1437 1442 1443 1440 1440 1434 1431 1431 1437 1438 1447 1449 1451 1455 1460 1465 1469 1472 1474 1478 1482 1483 1487 1489 1491 1492 1494 1496 1496 1497 1499 1500
1468 1467 1471 1465 1457 1467 1464 1465 1465 1461 1454 1448 1449 1449 1446 1442 1440 1443 1446 1447 1445 1443 1441 1439 1439 1443 1447 1448 1452 1454 1456 1460 1463 1466 1470 1471 1475 1478 1480 1482 1482 1486 1486 1488 1489 1489 1491 1491 1490
1468 1465 1468 1470 1459 1468 1466 1465 1470 1468 1465 1462 1458 1456 1451 1446 1447 1450 1451 1452 1451 1449 1447 1446 1447 1449 1450 1450 1451 1451 1457 1460 1461 1463 1466 1468 1471 1472 1473 1475 1476 1477 1477 1479 1479 1479 1480 1480 1481
1469 1463 1461 1462 1465 1470 1469 1473 1478 1477 1471 1466 1462 1457 1455 1455 1455 1456 1457 1457 1457 1455 1453 1453 1454 1453 1452 1453 1454 1456 1459 1459 1461 1461 1462 1465 1466 1466 1466 1466 1468 1467 1467 1467 1470 1469 1470 1470 1471
1464 1464 1462 1471 1468 1470 1475 1483 1477 1474 1474 1471 1465 1464 1463 1462 1462 1462 1462 1461 1460 1459 1458 1458 1457 1456 1456 1456 1454 1454 1454 1455 1457 1456 1457 1460 1462 1462 1462 1461 1458 1458 1458 1459 1459 1460 1460 1460 1461